User: anonymous   Login
Location: Caribou
(46.8667°N, 68.0167°W)
Time: 12:00:39
(UTC-04:00)
Language:

SL-08 RB Rocket - Orbit

View from above orbital plane
View from above orbital plane
View from above satellite
View from above satellite

Ground track
Ground track

The orbit data is extracted from the following two-line orbital elements,

1 26387U 00033D   15115.29377759  .00000943  00000-0  17302-3 0  9996
2 26387 098.0664 184.0863 0025549 306.8743 094.6591 14.67833922792868
Epoch (UTC): 25 April 2015 07:03:02
Eccentricity: 0.0025549
inclination: 98.0664°
perigee height: 650 km
apogee height: 686 km
right ascension of ascending node: 184.0863°
argument of perigee: 306.8743°
revolutions per day: 14.67833922
mean anomaly at epoch: 94.6591°
orbit number at epoch: 79286

The dashed part of the orbit path shows where the satellite is in the earth's shadow,  

DLR